This is the latest recevied weather packets stored in our database for station/object K5FEP. If no packets are shown the sender has not sent any weather packets the latest 10 day(s).
| Time | Temp. | Humidity | Pressure | Rain* | Wind** | Luminosity | Snow |
|---|---|---|---|---|---|---|---|
| 1788546757 | 38.33° C | 34% | 1012.8 hPa | 0 mm | - | 213 W/m² | - |
| 1788546452 | 40° C | 33% | 1012.9 hPa | 0 mm | - | 390 W/m² | - |
| 1788546164 | 39.44° C | 33% | 1013 hPa | 0 mm | - | 896 W/m² | - |
| 1788545842 | 38.89° C | 36% | 1013.3 hPa | 0 mm | - | 904 W/m² | - |
| 1788545542 | 38.89° C | 36% | 1013.1 hPa | 0 mm | - | 940 W/m² | - |
| 1788545238 | 38.89° C | 36% | 1013.3 hPa | 0 mm | - | 941 W/m² | - |
| 1788544933 | 38.33° C | 37% | 1013.1 hPa | 0 mm | - | 925 W/m² | - |
| 1788544632 | 38.33° C | 37% | 1013.4 hPa | 0 mm | - | 918 W/m² | - |
| 1788544330 | 38.33° C | 37% | 1013.1 hPa | 0 mm | - | 960 W/m² | - |
| 1788544025 | 38.33° C | 37% | 1013.6 hPa | 0 mm | - | 932 W/m² | - |
| 1788543721 | 38.33° C | 37% | 1013.6 hPa | 0 mm | - | 934 W/m² | - |
| 1788543416 | 38.33° C | 36% | 1013.4 hPa | 0 mm | - | 949 W/m² | - |
| 1788543111 | 38.33° C | 37% | 1013.7 hPa | 0 mm | - | 931 W/m² | - |
| 1788542808 | 38.33° C | 38% | 1013.8 hPa | 0 mm | - | 915 W/m² | - |
| 1788542507 | 38.33° C | 38% | 1013.6 hPa | 0 mm | - | 902 W/m² | - |
| 1788542202 | 37.78° C | 38% | 1013.6 hPa | 0 mm | - | 921 W/m² | - |
| 1788541897 | 37.78° C | 39% | 1013.7 hPa | 0 mm | - | 925 W/m² | - |
| 1788541594 | 37.78° C | 38% | 1014 hPa | 0 mm | - | 914 W/m² | - |
| 1788541289 | 38.33° C | 37% | 1014 hPa | 0 mm | - | 914 W/m² | - |
| 1788540988 | 37.78° C | 38% | 1014.2 hPa | 0 mm | - | 913 W/m² | - |
| 1788540688 | 37.78° C | 38% | 1014.1 hPa | 0 mm | - | 914 W/m² | - |
| 1788540387 | 37.78° C | 38% | 1014.2 hPa | 0 mm | - | 900 W/m² | - |
| 1788540083 | 38.33° C | 37% | 1014.2 hPa | 0 mm | - | 890 W/m² | - |
| 1788539779 | 37.78° C | 39% | 1014.3 hPa | 0 mm | - | 888 W/m² | - |
| 1788539474 | 37.22° C | 39% | 1014.4 hPa | 0 mm | - | 888 W/m² | - |
* Rain latest hour (hover to see other rain measurements)
** Current wind speed in m/s (hover to see current wind gust speed)